Regional Weather Roundup
Issued by NWS

Home | Current Version | Previous Version | Graphics & Text | Print | Product List | Glossary On
Versions: 1 2 3 4 5 6 7 8 9 10 11 12 13 14 15 16 17 18 19 20 21 22 23 24 25 26 27 28 29 30 31 32 33 34 35 36 37 38 39 40 41 42 43 44 45 46 47 48 49 50
000
ASUS45 KCYS 232110
RWRWY

WYOMING REGIONAL WEATHER ROUNDUP
NATIONAL WEATHER SERVICE CHEYENNE WY
300 PM MDT SUN APR 23 2017

NOTE:  "FAIR" INDICATES FEW OR NO CLOUDS BELOW 12,000 FEET
WITH NO SIGNIFICANT WEATHER AND/OR OBSTRUCTIONS TO VISIBILITY.

WYZ001-232200-
YELLOWSTONE NATIONAL PARK

CITY           SKY/WX    TMP DP  RH WIND       PRES   REMARKS
LK YELLOWSTONE   N/A     43  24  47 W8        29.86S
W YELLOWSTONE  NOT AVBL

$$
WYZ002>013-054>058-071-098>099-232200-
NORTHERN WYOMING

CITY           SKY/WX    TMP DP  RH WIND       PRES   REMARKS
JACKSON        PTSUNNY   52  27  37 SW15      29.84R
CODY           FAIR      61  36  39 NE7       29.69F
GREYBULL       FAIR      70  34  26 SE8G16    29.63F
WORLAND        FAIR      69  31  24 VRB3      29.64F
SHERIDAN       FAIR      69  37  30 E14       29.64F
BUFFALO        FAIR      69  31  24 SE7G21    29.67F
GILLETTE       FAIR      69  32  25 S13       29.68F
HULETT         FAIR      68  28  22 CALM      29.72F
NEWCASTLE      FAIR      68  27  21 SE6       29.73F

$$
WYZ014>020-022>026-101>103-232200-
CENTRAL WYOMING

CITY           SKY/WX    TMP DP  RH WIND       PRES   REMARKS
BIG PINEY      PTSUNNY   58  25  28 W22G30    29.83S
PINEDALE       MOCLDY    55  27  33 W8G18     29.83F
DUBOIS         DRIZZLE   41  32  70 W22G29    29.84S
LANDER         FAIR      65  28  24 S3        29.70F
RIVERTON       FAIR      66  27  23 VRB5      29.72F
CASPER         FAIR      71  25  17 SW18      29.72F
DOUGLAS        FAIR      71  28  20 VRB6      29.72F

$$
WYZ021-027>030-104>119-232200-
SOUTHERN WYOMING

CITY           SKY/WX    TMP DP  RH WIND       PRES   REMARKS
EVANSTON       FAIR      60  29  30 W26G33    29.85R
KEMMERER         N/A     55  27  33 W24G30    29.85R
FORT BRIDGER   CLOUDY    63  25  23 W20G31    29.86S
ROCK SPRINGS   PTSUNNY   64  20  18 S13       29.79F
DIXON            N/A     67  24  19 SW16G24   29.87F
RAWLINS        FAIR      66  19  16 SW26G38   29.82F
SARATOGA       FAIR      66  21  18 SW22G32   29.86F
LARAMIE        FAIR      65  18  16 SW20G28   29.85F
CHEYENNE       FAIR      65  31  28 S12G21    29.83F
TORRINGTON     FAIR      74  27  17 S10       29.72F
PINE BLUFFS    FAIR      63  32  31 S16G25    29.82F

$$



USA.gov is the U.S. government's official web portal to all federal, state and local government web resources and services.